EW5816 Kenilworth NJ US current weather conditions

sailwx.info

Wind from 275

Air temperature 4.4° C
Dewpoint -3.1° C

Last reported at 2020-Jan-28 21:01 UTC.
Time now 2020-Jan-28 22:05 UTC

Location: N 40°40' W 074°18'.
View on Google Maps.

See reports from other nearby stations

  
Tides and Currents Weather Stations Pressure Air Temp Water Temp Dewpoint Dewpoint Depression Visibility Wind Speed Wind Dir Waves Ship Positions
date/time (UTC)wind fromknots sea level pressurealtimeterstation pressurevisibilityair tempwater tempwave heightnotes
2020-Jan-28 21:01 275 4.4
2020-Jan-28 20:47 310 4.4
2020-Jan-28 20:33 359 4.4
2020-Jan-28 20:16 296 4.4
2020-Jan-28 20:02 331 4.4
2020-Jan-28 19:46 298 0 gusting 6 4.4
2020-Jan-28 19:31 329 4.4
2020-Jan-28 19:16 304 5.0
2020-Jan-28 19:01 273 5.0
2020-Jan-28 18:47 354 1 gusting 6 5.0
2020-Jan-28 18:31 309 1 gusting 6 5.6
2020-Jan-28 18:15 342 0 gusting 8 5.6
2020-Jan-28 18:00 311 1 gusting 7 6.1
2020-Jan-28 17:46 317 3 gusting 8 6.1
2020-Jan-28 17:32 337 1 gusting 12 6.1
2020-Jan-28 17:16 270 3 gusting 7 6.1
2020-Jan-28 17:01 244 3 gusting 9 6.1
2020-Jan-28 16:45 305 5 gusting 13 6.1
2020-Jan-28 16:30 321 3 gusting 13 6.1
2020-Jan-28 16:15 003 3 gusting 7 6.1
2020-Jan-28 16:01 287 3 gusting 8 6.1
2020-Jan-28 15:45 315 5.6
2020-Jan-28 15:30 310 4 gusting 9 5.0
2020-Jan-28 15:15 294 0 gusting 11 4.4
2020-Jan-28 15:00 296 0 gusting 19 3.9
2020-Jan-28 14:45 297 5 gusting 14 3.9
2020-Jan-28 14:32 323 4 gusting 10 3.3
2020-Jan-28 14:17 333 0 gusting 8 3.3
2020-Jan-28 14:02 303 1 gusting 9 2.8
2020-Jan-28 13:46 290 0 gusting 8 2.8
2020-Jan-28 13:31 297 4 gusting 10 2.8
2020-Jan-28 13:15 310 2 gusting 7 2.8
2020-Jan-28 13:02 293 2.2
2020-Jan-28 12:46 304 2.2
2020-Jan-28 12:31 297 2.2
2020-Jan-28 12:16 276 2.2
2020-Jan-28 12:00 306 2.2
2020-Jan-28 11:46 356 2.2
2020-Jan-28 11:30 242 2.2
2020-Jan-28 11:15 326 2.8
2020-Jan-28 11:00 290 2.8
2020-Jan-28 10:45 277 2.8
2020-Jan-28 10:30 295 2.8
2020-Jan-28 10:15 340 2 gusting 7 2.8
2020-Jan-28 10:00 299 2 gusting 9 2.8
2020-Jan-28 09:45 298 2.8
2020-Jan-28 09:30 302 2.8
2020-Jan-28 09:15 307 2.8
2020-Jan-28 09:00 265 0 gusting 5 2.8
2020-Jan-28 08:46 312 3 gusting 8 2.8
2020-Jan-28 08:32 302 3 gusting 7 3.3
2020-Jan-28 08:18 254 1 gusting 8 3.3
2020-Jan-28 08:02 280 3.3
2020-Jan-28 07:46 264 0 gusting 5 3.3
2020-Jan-28 07:31 254 0 gusting 4 3.3
2020-Jan-28 07:17 273 2 gusting 6 3.3
2020-Jan-28 07:01 305 1 gusting 7 3.3
2020-Jan-28 06:48 299 2 gusting 7 3.3
2020-Jan-28 06:33 294 2 gusting 7 3.3
2020-Jan-28 06:15 350 1 gusting 6 3.3
2020-Jan-28 06:02 299 0 gusting 5 3.9
2020-Jan-28 05:46 300 1 gusting 6 3.9
2020-Jan-28 05:31 276 0 gusting 5 3.9
2020-Jan-28 05:16 296 0 gusting 3 3.9
2020-Jan-28 05:00 279 1 gusting 4 3.9
2020-Jan-28 04:46 318 3.9
2020-Jan-28 04:31 002 1 gusting 6 3.9
2020-Jan-28 04:15 007 1 gusting 6 4.4
2020-Jan-28 04:01 013 0 gusting 6 4.4
2020-Jan-28 03:45 304 4.4
2020-Jan-28 03:30 263 4.4
2020-Jan-28 03:15 273 4.4
2020-Jan-28 03:00 273 5.0
2020-Jan-28 02:46 273 5.0
2020-Jan-28 02:30 273 5.0
2020-Jan-28 02:15 273 5.0
2020-Jan-28 02:00 273 5.0
2020-Jan-28 01:45 273 5.0
2020-Jan-28 01:30 273 5.0
2020-Jan-28 01:16 273 5.0
2020-Jan-28 01:00 273 5.6
2020-Jan-28 00:45 275 5.6
2020-Jan-28 00:30 275 5.6
2020-Jan-28 00:15 288 5.6
2020-Jan-28 00:00 264 5.6
2020-Jan-27 23:45 292 5.6
2020-Jan-27 23:30 284 6.1
2020-Jan-27 23:15 282 6.1
2020-Jan-27 23:00 282 6.1
2020-Jan-27 22:45 314 6.1
2020-Jan-27 22:30 296 0 gusting 3 6.1
2020-Jan-27 22:16 267 2 gusting 6 6.1
2020-Jan-27 22:00 296 0 gusting 4 6.7
2020-Jan-27 21:45 257 6.7
2020-Jan-27 21:30 245 2 gusting 8 6.7
2020-Jan-27 21:15 306 3 gusting 8 7.2
2020-Jan-27 21:00 293 4 gusting 10 7.2
2020-Jan-27 20:45 323 7.2
2020-Jan-27 20:30 319 0 gusting 8 6.7
2020-Jan-27 20:15 278 0 gusting 12 6.7
2020-Jan-27 20:01 277 7.2
2020-Jan-27 19:47 326 1 gusting 10 7.2
2020-Jan-27 19:32 279 5 gusting 9 7.8
2020-Jan-27 19:17 244 6.7
2020-Jan-27 19:01 263 0 gusting 6 6.1
2020-Jan-27 18:47 267 1 gusting 5 5.6
2020-Jan-27 18:31 258 5.6
2020-Jan-27 18:17 231 2 gusting 6 5.6
2020-Jan-27 18:02 220 1 gusting 8 5.6
2020-Jan-27 17:47 258 2 gusting 10 5.6
2020-Jan-27 17:31 311 5.6
2020-Jan-27 17:16 272 2 gusting 12 5.6
2020-Jan-27 17:01 265 2 gusting 7 5.0
2020-Jan-27 16:46 228 1 gusting 8 5.0
2020-Jan-27 16:30 239 1 gusting 5 5.0
2020-Jan-27 16:16 290 2 gusting 8 5.6
2020-Jan-27 16:00 293 2 gusting 6 5.6
2020-Jan-27 15:45 226 2 gusting 10 5.0
2020-Jan-27 15:30 188 4 gusting 7 5.0
2020-Jan-27 15:15 225 3 gusting 9 4.4
2020-Jan-27 15:00 263 0 gusting 9 4.4
2020-Jan-27 14:45 198 0 gusting 4 3.9
2020-Jan-27 14:30 202 2 gusting 6 3.3
2020-Jan-27 14:18 135 1 gusting 6 3.3
2020-Jan-27 14:03 256 2.8
2020-Jan-27 13:46 275 2.8
2020-Jan-27 13:31 315 2.2
2020-Jan-27 13:16 224 2.2
2020-Jan-27 13:01 204 2.2
2020-Jan-27 12:46 215 2.2
2020-Jan-27 12:32 205 0 gusting 5 1.7
2020-Jan-27 12:16 110 1.7
2020-Jan-27 12:01 213 1.7
2020-Jan-27 11:46 198 0 gusting 4 1.7
2020-Jan-27 11:31 242 1.7
2020-Jan-27 11:17 226 1.7
2020-Jan-27 11:01 223 1.7
2020-Jan-27 10:45 208 1.7
2020-Jan-27 10:31 230 1.7
2020-Jan-27 10:16 226 1.7
2020-Jan-27 10:01 215 1.7
2020-Jan-27 09:46 267 1.7
2020-Jan-27 09:31 224 1.7
2020-Jan-27 09:17 257 1.7
2020-Jan-27 09:01 261 1.7
2020-Jan-27 08:46 271 1.7
2020-Jan-27 08:30 223 1.7
2020-Jan-27 08:15 236 1.7
2020-Jan-27 08:00 220 1.7
2020-Jan-27 07:46 236 1.7
2020-Jan-27 07:31 231 1.7
2020-Jan-27 07:15 222 1.1
2020-Jan-27 07:00 224 1.1
2020-Jan-27 06:45 238 0.6
2020-Jan-27 06:30 250 0.6
2020-Jan-27 06:15 215 0.6
2020-Jan-27 06:00 219 0.6
2020-Jan-27 05:45 236 0.6
2020-Jan-27 05:30 258 0.6
2020-Jan-27 05:17 258 1.1
2020-Jan-27 05:01 258 1.7
2020-Jan-27 04:47 258 1.7
2020-Jan-27 04:32 258 2.2
2020-Jan-27 04:17 258 2.2
2020-Jan-27 04:05 258 2.2
2020-Jan-27 03:46 244 2.2
2020-Jan-27 03:31 244 2.2
2020-Jan-27 03:18 231 2.2
2020-Jan-27 03:01 195 2.8
2020-Jan-27 02:49 244 2.8
2020-Jan-27 02:31 199 2.8
2020-Jan-27 02:17 270 2.8
2020-Jan-27 02:02 241 3.3
2020-Jan-27 01:47 272 3.3
2020-Jan-27 01:31 220 3.3
2020-Jan-27 01:16 194 3.9
2020-Jan-27 01:01 301 3.9
2020-Jan-27 00:47 272 3.9
2020-Jan-27 00:32 283 4.4
2020-Jan-27 00:16 254 2 gusting 6 4.4
2020-Jan-27 00:02 272 5.0
2020-Jan-26 23:46 285 2 gusting 6 5.0
2020-Jan-26 23:32 264 1 gusting 8 5.0
2020-Jan-26 23:16 271 2 gusting 6 5.6
2020-Jan-26 23:02 285 2 gusting 7 6.1
2020-Jan-26 22:46 250 1 gusting 6 6.1
2020-Jan-26 22:31 274 3 gusting 6 6.1
2020-Jan-26 22:16 244 4 gusting 9 6.1
2020-Jan-26 22:03 305 1 gusting 6 6.7